This demonstration page uses our WeatherBlox Daily Observations layout. Learn more.

Left ArrowRight Arrow

Hourly Observations for November 24, 2015

Temp ( °F °C ) Dew Point ( °F °C ) Humidity (%) Winds ( mph kmh ) Pressure ( in mb ) Visibility ( mi km ) Precip ( " mm )
12:53 am 00:53 Hazy 54 12.2 48 8.9 80 80 SSW 7 11 29.78 1009 5 8 0.00 0.00
1:53 am 01:53 Mostly Cloudy with Haze 54 12.2 48 8.9 80 80 SSW 13 20 29.78 1008 6 10 0.00 0.00
2:53 am 02:53 Clear 53 11.7 46 7.8 77 77 SSW 14 22 29.76 1008 9 14 0.00 0.00
3:21 am 03:21 Mostly Cloudy 53 11.7 46 7.8 77 77 SSW 17 28 29.80 1009 10 16 0.00 0.00
3:46 am 03:46 Cloudy 52 11 46 8 82 82 SSW 13 20 29.80 1009 9 14 0.00 0.00
3:53 am 03:53 Cloudy 52 11.1 46 7.8 80 80 SSW 14 22 29.76 1008 10 16 0.00 0.00
4:33 am 04:33 Cloudy 52 11 46 8 82 82 S 18 30 29.77 1008 10 16 0.00 0.00
4:53 am 04:53 Cloudy 51 10.6 45 7.2 80 80 S 20 31 29.73 1007 10 16 0.00 0.00
5:53 am 05:53 Cloudy with Light Rain 51 10.6 45 7.2 80 80 S 16 26 29.73 1007 10 16 0.00 0.03
6:53 am 06:53 Cloudy 51 10.6 45 7.2 80 80 S 20 31 29.70 1006 10 16 0.02 0.51
7:53 am 07:53 Cloudy with Light Rain 51 10.6 44 6.7 77 77 SSW 13 20 29.71 1006 10 16 0.02 0.51
8:40 am 08:40 Cloudy with Rain 48 9 45 7 87 87 WSW 14 22 29.77 1008 3 4 0.00 0.00
8:53 am 08:53 Cloudy with Light Rain 49 9.4 45 7.2 86 86 WSW 14 22 29.73 1007 3 4 0.11 2.79
9:00 am 09:00 Cloudy with Light Rain 50 10 45 7 82 82 SW 14 22 29.77 1008 5 8 0.00 0.00
9:11 am 09:11 Cloudy with Light Rain 50 10 45 7.2 83 83 W 8 13 29.74 1007 10 16 0.02 0.51
9:53 am 09:53 Cloudy 50 10 44 6.7 80 80 WSW 9 15 29.71 1006 10 16 0.02 0.51
10:53 am 10:53 Mostly Cloudy 52 11.1 44 6.7 75 75 WNW 3 6 29.72 1006 10 16 0.00 0.00
11:53 am 11:53 Partly Cloudy 54 12.2 41 5 62 62 Calm 29.71 1006 10 16 0.00 0.00
12:53 pm 12:53 Sunny 57 13.9 28 -2.2 33 33 WNW 8 13 29.71 1006 10 16 0.00 0.00
1:53 pm 13:53 Sunny 56 13.3 23 -5 28 28 W 12 19 29.72 1007 10 16 0.00 0.00
2:53 pm 14:53 Sunny 55 12.8 27 -2.8 34 34 WNW 12 19 29.73 1007 10 16 0.00 0.00
3:53 pm 15:53 Sunny 54 12.2 26 -3.3 34 34 NW 10 17 29.74 1007 10 16 0.00 0.00
4:53 pm 16:53 Clear 51 10.6 27 -2.8 39 39 NW 6 9 29.77 1008 10 16 0.00 0.00
5:53 pm 17:53 Clear 48 8.9 27 -2.8 44 44 WNW 5 7 29.79 1009 10 16 0.00 0.00
6:53 pm 18:53 Clear 46 7.8 30 -1.1 54 54 NE 9 15 29.82 1010 10 16 0.00 0.00
7:53 pm 19:53 Clear 44 6.7 34 1.1 68 68 N 9 15 29.84 1011 10 16 0.00 0.00
8:53 pm 20:53 Clear 43 6.1 33 0.6 68 68 N 7 11 29.85 1011 10 16 0.00 0.00
9:53 pm 21:53 Clear 42 5.6 32 0 68 68 NNW 6 9 29.87 1012 10 16 0.00 0.00
10:53 pm 22:53 Clear 38 3.3 32 0 79 79 N 5 7 29.88 1012 10 16 0.00 0.00
11:53 pm 23:53 Clear 39 3.9 32 0 76 76 N 6 9 29.88 1012 10 16 0.00 0.00

Powered by AerisWeather